When you browse on this site, cookies collect data to enhance your experience and personalize the content and advertising you see.
Visit our Privacy Policy to learn more. By continuing to use the site, you agree to this use of cookies and data.

Stündliche Wetter Da Nang

Heute, 6 Juli, Montag

Zeit Temperatur Niederschläge Wind Luftdruck Luftfeuchtigkeit
00:00 +27°C° 0 mm 2 m/S 753 mmHg 93%
01:00 +27°C° 0 mm 2 m/S 753 mmHg 93%
02:00 +27°C° 0 mm 2 m/S 753 mmHg 93%
03:00 +27°C° 0 mm 2 m/S 752 mmHg 92%
04:00 +27°C° 0 mm 2 m/S 752 mmHg 92%
05:00 +28°C° 0 mm 2 m/S 752 mmHg 87%
06:00 +29°C° 0 mm 2 m/S 753 mmHg 82%
07:00 +30°C° 0 mm 2 m/S 753 mmHg 76%
08:00 +34°C° 0 mm 2 m/S 753 mmHg 67%
09:00 +36°C° 0 mm 2 m/S 753 mmHg 57%
10:00 +39°C° 0 mm 2 m/S 753 mmHg 48%
11:00 +39°C° 0 mm 2 m/S 753 mmHg 48%
12:00 +39°C° 0 mm 3 m/S 752 mmHg 48%
13:00 +39°C° 0 mm 3 m/S 752 mmHg 48%
14:00 +38°C° 0.2 mm 3 m/S 752 mmHg 56%
15:00 +37°C° 0.2 mm 4 m/S 751 mmHg 64%
16:00 +35°C° 0.2 mm 4 m/S 751 mmHg 72%
17:00 +34°C° 0.2 mm 3 m/S 751 mmHg 77%
18:00 +31°C° 0.2 mm 3 m/S 752 mmHg 83%
19:00 +30°C° 0.2 mm 3 m/S 752 mmHg 89%
20:00 +29°C° 0 mm 2 m/S 753 mmHg 91%
21:00 +29°C° 0 mm 2 m/S 753 mmHg 92%
22:00 +28°C° 0 mm 2 m/S 754 mmHg 94%
23:00 +28°C° 0 mm 2 m/S 754 mmHg 93%

Morgen, 7 Juli, Dienstag

Zeit Temperatur Niederschläge Wind Luftdruck Luftfeuchtigkeit
00:00 +28°C° 0 mm 2 m/S 754 mmHg 93%
01:00 +28°C° 0 mm 2 m/S 754 mmHg 92%
02:00 +28°C° 0 mm 2 m/S 754 mmHg 91%
03:00 +28°C° 0 mm 2 m/S 753 mmHg 91%
04:00 +27°C° 0 mm 2 m/S 753 mmHg 90%
05:00 +28°C° 0 mm 2 m/S 754 mmHg 86%
06:00 +29°C° 0 mm 2 m/S 754 mmHg 81%
07:00 +30°C° 0 mm 1 m/S 755 mmHg 77%
08:00 +33°C° 0 mm 1 m/S 755 mmHg 66%
09:00 +35°C° 0 mm 1 m/S 755 mmHg 56%
10:00 +39°C° 0 mm 1 m/S 755 mmHg 46%
11:00 +39°C° 0 mm 2 m/S 754 mmHg 45%
12:00 +40°C° 0 mm 3 m/S 754 mmHg 44%
13:00 +40°C° 0 mm 3 m/S 754 mmHg 43%
14:00 +39°C° 0.1 mm 3 m/S 753 mmHg 49%
15:00 +38°C° 0.1 mm 4 m/S 753 mmHg 55%
16:00 +36°C° 0.1 mm 4 m/S 752 mmHg 60%
17:00 +34°C° 0.1 mm 3 m/S 753 mmHg 69%
18:00 +31°C° 0.1 mm 3 m/S 753 mmHg 78%
19:00 +30°C° 0.1 mm 2 m/S 753 mmHg 87%
20:00 +29°C° 0 mm 2 m/S 754 mmHg 88%
21:00 +29°C° 0 mm 2 m/S 755 mmHg 89%
22:00 +28°C° 0 mm 1 m/S 755 mmHg 91%
23:00 +28°C° 0 mm 2 m/S 755 mmHg 90%

übermorgen, 8 Juli, Mittwoch

Zeit Temperatur Niederschläge Wind Luftdruck Luftfeuchtigkeit
00:00 +28°C° 0 mm 2 m/S 755 mmHg 89%
01:00 +28°C° 0 mm 2 m/S 754 mmHg 88%
02:00 +28°C° 0 mm 2 m/S 754 mmHg 87%
03:00 +28°C° 0 mm 2 m/S 754 mmHg 86%
04:00 +27°C° 0 mm 2 m/S 754 mmHg 86%
05:00 +28°C° 0 mm 2 m/S 754 mmHg 82%
06:00 +29°C° 0 mm 1 m/S 755 mmHg 79%
07:00 +30°C° 0 mm 1 m/S 755 mmHg 75%
08:00 +33°C° 0 mm 1 m/S 755 mmHg 65%
09:00 +35°C° 0 mm 1 m/S 755 mmHg 56%
10:00 +37°C° 0 mm 1 m/S 755 mmHg 46%
11:00 +39°C° 0 mm 2 m/S 754 mmHg 44%
12:00 +40°C° 0 mm 2 m/S 754 mmHg 41%
13:00 +42°C° 0 mm 3 m/S 753 mmHg 39%
14:00 +40°C° 0 mm 3 m/S 753 mmHg 45%
15:00 +38°C° 0 mm 3 m/S 752 mmHg 50%
16:00 +37°C° 0 mm 3 m/S 752 mmHg 55%
17:00 +35°C° 0.3 mm 3 m/S 752 mmHg 67%
18:00 +31°C° 0.3 mm 3 m/S 752 mmHg 78%
19:00 +29°C° 0.3 mm 3 m/S 753 mmHg 89%
20:00 +28°C° 0 mm 3 m/S 753 mmHg 89%
21:00 +28°C° 0 mm 3 m/S 753 mmHg 89%
22:00 +28°C° 0 mm 3 m/S 754 mmHg 89%
23:00 +28°C° 0 mm 2 m/S 754 mmHg 89%

9 Juli, Donnerstag

Zeit Temperatur Niederschläge Wind Luftdruck Luftfeuchtigkeit
00:00 +28°C° 0 mm 2 m/S 753 mmHg 88%
01:00 +27°C° 0 mm 2 m/S 753 mmHg 87%
02:00 +27°C° 0 mm 2 m/S 753 mmHg 86%
03:00 +27°C° 0 mm 2 m/S 753 mmHg 85%
04:00 +27°C° 0 mm 2 m/S 753 mmHg 84%
05:00 +28°C° 0 mm 1 m/S 753 mmHg 81%
06:00 +29°C° 0 mm 1 m/S 753 mmHg 78%
07:00 +29°C° 0 mm 1 m/S 754 mmHg 74%
08:00 +32°C° 0 mm 1 m/S 754 mmHg 63%
09:00 +35°C° 0 mm 1 m/S 754 mmHg 53%
10:00 +39°C° 0 mm 1 m/S 754 mmHg 42%
11:00 +40°C° 0 mm 2 m/S 753 mmHg 38%
12:00 +41°C° 0 mm 2 m/S 752 mmHg 35%
13:00 +43°C° 0 mm 3 m/S 751 mmHg 32%
14:00 +40°C° 0 mm 3 m/S 751 mmHg 39%
15:00 +39°C° 0 mm 3 m/S 750 mmHg 45%
16:00 +37°C° 0 mm 3 m/S 750 mmHg 52%
17:00 +35°C° 0 mm 3 m/S 750 mmHg 62%
18:00 +32°C° 0 mm 2 m/S 751 mmHg 72%
19:00 +30°C° 0 mm 2 m/S 752 mmHg 82%
20:00 +29°C° 0 mm 2 m/S 752 mmHg 83%
21:00 +29°C° 0 mm 2 m/S 753 mmHg 84%
22:00 +29°C° 0 mm 2 m/S 753 mmHg 85%
23:00 +29°C° 0 mm 2 m/S 753 mmHg 84%

10 Juli, Freitag

Zeit Temperatur Niederschläge Wind Luftdruck Luftfeuchtigkeit
00:00 +28°C° 0 mm 2 m/S 753 mmHg 82%
01:00 +28°C° 0 mm 2 m/S 753 mmHg 81%
02:00 +28°C° 0 mm 2 m/S 753 mmHg 80%
03:00 +28°C° 0 mm 2 m/S 752 mmHg 79%
04:00 +28°C° 0 mm 2 m/S 752 mmHg 78%
05:00 +28°C° 0 mm 2 m/S 753 mmHg 76%
06:00 +29°C° 0 mm 2 m/S 753 mmHg 74%
07:00 +30°C° 0 mm 2 m/S 753 mmHg 72%
08:00 +33°C° 0 mm 1 m/S 753 mmHg 62%
09:00 +35°C° 0 mm 1 m/S 753 mmHg 52%
10:00 +39°C° 0 mm 1 m/S 753 mmHg 42%
11:00 +40°C° 0 mm 2 m/S 753 mmHg 39%
12:00 +41°C° 0 mm 2 m/S 752 mmHg 36%
13:00 +43°C° 0 mm 3 m/S 752 mmHg 33%
14:00 +40°C° 0 mm 3 m/S 752 mmHg 40%
15:00 +38°C° 0 mm 3 m/S 751 mmHg 47%
16:00 +37°C° 0 mm 3 m/S 751 mmHg 54%
17:00 +35°C° 0.1 mm 3 m/S 751 mmHg 64%
18:00 +32°C° 0.1 mm 2 m/S 752 mmHg 73%
19:00 +30°C° 0.1 mm 2 m/S 752 mmHg 82%
20:00 +29°C° 0 mm 2 m/S 753 mmHg 83%
21:00 +29°C° 0 mm 2 m/S 753 mmHg 84%
22:00 +29°C° 0 mm 1 m/S 754 mmHg 85%
23:00 +28°C° 0.1 mm 1 m/S 754 mmHg 85%

11 Juli, Samstag

Zeit Temperatur Niederschläge Wind Luftdruck Luftfeuchtigkeit
00:00 +28°C° 0.1 mm 1 m/S 753 mmHg 85%
01:00 +28°C° 0.1 mm 1 m/S 753 mmHg 85%
02:00 +28°C° 0 mm 2 m/S 753 mmHg 84%
03:00 +28°C° 0 mm 2 m/S 753 mmHg 83%
04:00 +28°C° 0 mm 2 m/S 752 mmHg 83%
05:00 +29°C° 0 mm 2 m/S 753 mmHg 79%
06:00 +30°C° 0 mm 2 m/S 753 mmHg 75%
07:00 +31°C° 0 mm 2 m/S 753 mmHg 72%
08:00 +33°C° 0 mm 1 m/S 753 mmHg 62%
09:00 +36°C° 0 mm 1 m/S 753 mmHg 51%
10:00 +40°C° 0 mm 1 m/S 753 mmHg 41%
11:00 +40°C° 0 mm 2 m/S 753 mmHg 40%
12:00 +41°C° 0 mm 2 m/S 752 mmHg 38%
13:00 +43°C° 0 mm 3 m/S 752 mmHg 36%
14:00 +40°C° 0 mm 3 m/S 752 mmHg 43%
15:00 +38°C° 0 mm 3 m/S 751 mmHg 50%
16:00 +37°C° 0 mm 4 m/S 751 mmHg 58%
17:00 +34°C° 0.5 mm 3 m/S 752 mmHg 68%
18:00 +31°C° 0.5 mm 3 m/S 752 mmHg 79%
19:00 +29°C° 0.5 mm 2 m/S 753 mmHg 89%
20:00 +29°C° 0 mm 2 m/S 753 mmHg 89%
21:00 +28°C° 0 mm 2 m/S 754 mmHg 90%
22:00 +28°C° 0 mm 2 m/S 754 mmHg 90%
23:00 +27°C° 0 mm 2 m/S 754 mmHg 89%
Mehr zeigen